Regional Weather Roundup
Issued by NWS Nashville, TN

Home | Current Version | Previous Version | Text Only | Print | Product List | Glossary On
Versions: 1 2 3 4 5 6 7 8 9 10 11 12 13 14 15 16 17 18 19 20 21 22 23 24 25 26 27 28 29 30 31 32 33 34 35 36 37 38 39 40 41 42 43 44 45 46 47 48 49 50
000
ASUS44 KOHX 302015
RWROHX
MIDDLE TENNESSEE HOURLY WEATHER ROUNDUP
NATIONAL WEATHER SERVICE NASHVILLE TN
300 PM CDT TUE SEP 30 2014

NOTE: "FAIR" INDICATES FEW OR NO CLOUDS BELOW 12,000 FEET WITH
NO SIGNIFICANT WEATHER AND/OR OBSTRUCTIONS TO VISIBILITY.

* THESE REPORTS ARE NOT UNDER NWS QUALITY CONTROL AND MAY NOT
  REPORT WEATHER SUCH AS PRECIPITATION AND FOG.


TNZ005>011-023>034-057-059-062>066-078-080-302100
...NORTHERN MIDDLE TENNESSEE...

CITY           SKY/WX    TMP DP  RH WIND       PRES   REMARKS
CLARKSVILLE    MOSUNNY   87  51  28 VRB5      29.89F
CROSSVILLE     MOSUNNY   79  52  38 N9        29.96F
GALLATIN         N/A     86  50  28 N8        29.91F
DICKSON        SUNNY     84  50  30 N7        29.91F
LEBANON        SUNNY     84  49  29 NW6       29.89F
NASHVILLE      MOSUNNY   87  50  27 NE10      29.90F
WEST NASHVILLE   N/A     88  45  22 NW7       29.89F
PORTLAND       SUNNY     82  48  30 NE10      29.91F
SMYRNA         SUNNY     88  50  27 VRB3      29.91F
SPARTA         SUNNY     84  57  39 W6        29.92F
$$
TNZ056-058-060-061-075>077-079-093>097-302100
...SOUTHERN MIDDLE TENNESSEE...

CITY           SKY/WX    TMP DP  RH WIND       PRES   REMARKS
COLUMBIA       MOSUNNY   84  57  39 N3        29.89F
FAYETTEVILLE   PTSUNNY   82  55  39 W5        29.91F
LEWISBURG      PTSUNNY   84  60  44 NE3       29.90F
MCMINNVILLE    SUNNY     82  57  42 NE7       29.92F
MURFREESBORO   SUNNY     85  48  27 N8        29.90F
SHELBYVILLE    MOSUNNY   86  55  35 W5        29.91F
TULLAHOMA      MOSUNNY   82  55  39 VRB7      29.92F
WINCHESTER     MOSUNNY   82  59  44 VRB3      29.91F
$$


...KEY TO REMARKS...
VSB - VISIBILITY IN MILES
WCI - WIND CHILL INDEX
HX  - HEAT INDEX




USA.gov is the U.S. government's official web portal to all federal, state and local government web resources and services.